SCP
0 0 0 0 0 0 0 0 0 0 0 0 0 0 0 0 0 0 0 0 0 0 0 0 0 0 0 0 0 0 0 0 0 0 0 0 0 0 0 0 0 0 0
0 0 0 0 0 0 0 0 0 0 0 0 0 0 0 0 0 0 0 0 0 0 0 0 0 0 0 0 0 0 0 0 0 0 0 0 0 0 0 0 0 0 0
-0 -0 0 0 0 0 0 0 0 0 0 0 0 0 0 0 0 0 0 0 0 0 0 0 0 0 0 0 0 0 0 0 0 0 0 0 0 0 0 0 0 0 0
0 0 0 0 0 0 0 0 0 0 0 0 0 0 0 0 0 0 0 0 0 0 0 0 0 0 0 0 0 0 0 0 0 0 0 0 0 0 0 0 0 0 0
0 0 0 0 0 0 0 0 0 0 0 0 0 0 0 0 0 0 0 0 0 0 0 0 0 0 0 0 0 0 0 0 0 0 0 0 0 0 0 0 0 0 0
0 0 0 0 0 0 0 0 0 0 0 0 0 0 0 0 0 0 0 0 0 0 0 0 0 0 0 0 0 0 0 0 0 0 0 0 0 0 0 0 0 0 0
0 0 0 0 0 0 0 0 0 0 0 0 0 0 0 0 0 0 0 0 0 0 0 0 0 0 0 0 0 0 0 0 0 0 0 0 0 0 0 0 0 0 0
0 0 0 0 0 0 0 0 0 0 0 0 0 0 0 0 0 0 0 0 0 0 0 0 0 0 0 0 0 0 0 0 0 0 0 0 0 0 0 0 0 0 0
0 0 0 0 0 0 0 0 0 0 0 0 0 0 0 0 0 0 0 0 0 0 0 0 0 0 0 0 0 0 0 0 0 0 0 0 0 0 0 0 0 0 0
0 0 0 0 0 0 0 0 0 0 0 0 0 0 0 0 0 0 0 0 0 0 0 0 0 0 0 0 0 0 0 0 0 0 0 0 0 0 0 0 0 0 0
0 0 0 0 0 0 0 0 0 0 0 0 0 0 0 0 0 0 0 0 0 0 0 0 0 0 0 0 0 0 0 0 0 0 0 0 0 0 0 0 0 0 0
0 0 0 0 0 0 0 0 0 0 0 0 0 0 0 0 0 0 0 0 0 0 0 0 0 0 0 0 0 0 0 0 0 0 0 0 0 0 0 0 0 0 0
0 0 0 0 0 0 0 0 0 0 0 0 0 0 0 0 0 0 0 0 0 0 0 0 0 0 0 0 0 0 0 0 0 0 0 0 0 0 0 0 0 0 0
0 0 0 0 0 0 0 0 0 0 0 0 0 0 0 0 0 0 0 0 0 0 0 0 0 0 0 0 0 0 0 0 0 0 0 0 0 0 0 0 0 0 0
0 0 0 0 0 0 0 0 0 0 0 0 0 0 0 0 0 0 0 0 0 0 0 0 0 0 0 0 0 0 0 0 0 0 0 0 0 0 0 0 0 0 0
0 0 0 0 0 0 0 0 0 0 0 0 0 0 0 0 0 0 0 -0 0 0 0 0 0 0 0 0 0 0 0 0 0 0 0 0 0 0 0 0 0 0 0
0 0 0 0 0 0 0 0 0 0 0 0 0 0 0 0 0 -0 -0 0 0 0 0 0 0 0 0 0 0 0 0 0 0 0 0 0 0 0 0 0 0 0 0
0 0 0 0 0 0 0 0 0 0 0 0 0 0 0 0 0 0 -0 0 0 0 0 0 0 0 0 0 0 0 0 0 0 0 0 0 0 0 0 0 0 0 0
0 0 0 0 0 0 0 0 0 0 0 0 0 0 0 0 0 0 0 0 0 0 0 0 0 0 0 0 0 0 0 0 0 0 0 0 0 0 0 0 0 0 0
0 0 0 0 0 0 0 0 0 0 0 0 0 0 0 0 0 0 0 0 0 0 0 0 0 0 0 0 0 0 0 0 0 0 0 0 0 0 0 0 0 0 0
0 0 0 0 0 0 0 0 0 0 0 0 0 0 0 0 0 0 0 0 0 0 0 0 0 0 0 0 0 0 0 0 0 0 0 0 0 0 0 0 0 0 0
0 0 0 0 0 0 0 0 0 0 0 0 0 0 0 0 0 0 0 0 0 0 0 0 0 0 0 0 0 0 0 0 0 0 0 0 0 0 0 0 0 0 0
0 0 0 0 0 0 0 0 0 0 0 0 0 0 0 0 0 0 0 0 0 0 0 0 0 0 0 0 0 0 0 0 0 0 0 0 0 0 0 0 0 0 0
0 0 0 0 0 0 0 0 0 0 0 0 0 0 0 0 0 0 0 0 0 0 0 0 0 0 0 0 0 0 0 0 0 0 0 0 0 0 0 0 0 0 0
0 0 0 0 0 0 0 0 0 0 0 0 0 0 0 0 0 0 0 0 0 0 0 0 0 0 0 0 0 0 0 0 0 0 0 0 0 0 0 0 0 0 0
0 0 0 0 0 0 0 0 0 0 0 0 0 0 0 0 0 0 0 0 0 0 0 0 0 0 0 0 0 0 0 0 0 0 0 0 0 0 0 0 0 0 0
Wind_Speed_500mb
11 19 28 34 39 43 49 53 57 61 64 68 66 66 70 73 82 88 100 101 93 101 103 95 94 87 88 96 93 85 82 68 71 61 58 55 43 42 45 42 42 41 33
20 33 38 43 45 48 51 51 54 58 62 63 64 62 65 70 77 79 89 94 94 106 97 92 94 95 93 94 94 87 82 68 71 59 60 54 46 41 40 42 40 39 37
44 45 41 48 52 56 58 61 61 61 65 68 66 64 63 65 70 70 76 91 87 93 91 103 93 98 100 96 93 86 69 70 66 58 54 50 42 43 46 42 42 35 41
56 56 58 56 61 61 62 63 67 69 71 69 66 65 62 63 66 69 70 82 84 94 92 90 97 98 95 92 85 74 69 67 62 54 45 39 42 42 42 45 37 43 39
55 62 64 60 63 68 69 67 70 72 75 72 65 64 64 66 66 70 69 77 76 81 89 90 89 85 82 74 74 74 61 60 64 51 42 38 38 45 46 34 43 38 42
66 67 65 64 62 67 73 75 76 76 72 69 66 64 65 68 64 68 69 77 76 79 81 78 81 81 71 67 66 47 53 67 53 43 40 35 38 34 37 43 45 41 46
69 65 62 62 63 61 61 64 66 66 64 64 60 59 61 64 62 63 70 74 74 75 77 77 76 72 64 65 53 57 57 49 37 29 28 27 38 46 39 45 46 50 53
59 61 57 56 56 57 59 58 58 59 60 59 57 55 56 54 57 60 65 70 70 69 70 71 67 64 58 59 65 66 63 44 28 22 33 37 45 41 53 51 54 55 52
45 50 53 56 58 58 59 54 52 53 54 54 54 53 52 50 56 56 63 63 62 60 61 59 53 51 50 58 73 72 59 39 35 33 32 41 46 51 49 44 51 49 49
47 44 45 49 51 50 47 48 48 47 44 46 49 45 49 50 54 53 55 55 54 56 53 48 44 45 56 69 76 65 55 34 31 32 24 36 39 39 40 45 45 48 43
48 48 47 45 45 43 40 40 41 42 41 39 38 38 42 45 45 44 43 42 45 47 48 52 52 52 64 67 64 54 43 35 28 23 31 39 41 41 45 48 49 44 41
47 46 44 42 40 39 37 32 30 30 27 28 28 32 33 33 33 30 29 27 25 32 42 50 54 58 63 63 55 36 32 42 39 42 42 46 42 40 38 38 35 35 36
48 43 41 40 36 31 30 25 22 22 19 20 24 24 24 22 19 19 31 30 18 22 31 40 51 57 61 57 42 51 49 36 37 46 51 50 42 39 36 33 37 36 38
44 39 35 31 29 24 20 15 13 13 15 15 15 14 13 13 14 21 32 26 14 14 21 34 43 49 50 56 57 53 41 48 53 58 56 47 44 41 38 39 40 42 47
38 31 26 21 16 12 9 7 8 13 15 14 16 17 13 11 14 22 29 27 18 19 28 38 43 44 48 53 55 52 47 52 51 52 48 43 42 41 43 44 45 49 49
26 23 21 14 12 12 13 19 20 15 18 25 27 25 25 25 24 27 30 28 21 24 30 35 37 38 40 40 43 47 47 45 45 45 40 37 37 42 45 49 51 49 48
23 22 17 14 18 19 20 23 25 21 20 19 23 25 24 23 24 25 25 27 21 21 25 26 27 28 31 35 39 41 41 38 37 38 41 43 43 45 49 49 47 48 49
18 17 14 14 19 21 18 18 18 18 18 19 19 21 21 20 21 23 25 25 28 29 26 23 24 26 28 31 34 36 36 35 36 38 40 38 38 40 42 44 45 46 45
18 16 16 18 20 20 18 18 16 14 14 13 12 12 14 12 12 14 17 15 19 18 18 20 24 29 27 24 23 24 26 28 30 33 35 36 37 40 43 43 44 44 43
19 15 17 16 18 18 15 13 12 12 13 13 14 18 19 16 14 14 14 15 17 17 17 15 15 17 19 20 22 25 28 30 32 35 37 38 40 42 42 41 41 41 40
23 21 17 17 16 14 11 11 12 16 15 13 11 11 9 8 8 7 7 6 8 9 11 14 16 19 22 25 27 30 32 33 34 35 37 38 39 39 39 41 41 40 39
26 25 22 17 14 13 14 15 13 12 10 7 5 4 4 2 1 2 4 6 10 13 15 18 21 25 28 30 32 33 35 35 37 37 37 37 38 41 43 42 40 38 38
21 21 19 17 17 18 17 17 14 12 9 5 2 1 4 7 9 12 14 16 19 22 25 27 29 31 33 34 36 38 38 39 39 40 40 40 40 41 41 40 38 38 38
19 19 19 19 19 18 17 14 10 6 2 2 6 9 11 14 17 19 23 26 29 32 34 36 37 38 39 40 41 42 42 42 41 40 40 40 39 39 40 39 36 36 37
18 18 18 18 17 15 11 8 4 3 6 9 12 15 18 21 25 29 32 34 36 37 38 38 38 39 40 39 39 39 40 41 40 39 39 39 38 38 39 38 37 37 38
14 14 14 12 10 7 4 4 7 11 14 18 22 25 29 31 34 36 37 38 39 40 40 40 39 39 38 38 38 38 38 38 38 39 41 41 40 39 40 39 38 40 41
Wind_Direction_500mb
300 296 282 273 264 262 262 262 264 267 268 269 269 266 261 256 245 248 248 246 249 251 249 253 247 251 249 250 243 238 232 238 242 230 227 217 212 214 218 225 231 242 247
317 323 301 289 278 271 270 271 266 266 270 269 270 267 261 255 248 250 247 248 250 252 248 248 253 252 246 245 243 241 234 229 236 238 220 206 213 215 221 226 234 240 253
305 304 294 283 279 275 275 275 271 267 267 267 268 267 263 255 248 247 248 248 248 255 250 261 252 248 244 242 240 237 224 220 229 231 214 209 213 216 217 226 236 243 253
290 293 294 284 273 275 277 274 272 269 268 266 268 270 264 256 250 247 250 249 249 251 255 254 249 249 246 243 239 226 215 214 223 211 210 214 217 217 222 231 239 249 256
287 291 289 285 278 278 275 275 277 272 269 268 267 265 262 255 250 249 251 251 252 255 256 250 250 251 246 246 234 213 216 211 206 207 216 212 215 221 231 249 248 253 264
288 285 285 284 281 276 275 276 274 273 270 267 268 266 261 255 252 249 251 256 255 255 254 250 253 249 246 237 227 215 217 206 207 218 216 219 230 237 245 244 253 262 277
289 290 288 285 282 281 279 275 273 273 272 270 269 265 262 256 252 251 254 254 256 256 253 252 248 245 238 223 197 203 199 204 214 216 219 245 249 255 241 243 250 259 268
287 287 286 283 279 278 277 277 277 274 272 272 271 268 264 255 250 250 255 258 255 255 254 251 247 245 227 204 192 194 205 209 205 250 263 273 269 244 246 253 262 268 274
294 292 290 284 281 280 277 272 267 268 271 272 272 269 264 256 253 252 257 258 254 252 250 248 240 230 210 194 199 202 210 216 243 251 273 277 271 266 271 267 266 269 276
302 297 292 291 288 282 277 272 266 260 258 259 263 264 259 255 254 255 259 256 250 247 243 236 221 217 201 203 204 214 214 225 249 266 283 287 280 277 271 265 267 269 276
305 305 302 296 289 281 274 269 266 261 258 256 259 258 255 254 254 260 259 256 249 245 238 222 219 200 204 209 212 214 222 238 255 284 301 296 275 266 260 262 260 263 272
303 305 303 297 288 283 276 268 263 260 257 257 252 251 252 253 252 254 242 246 246 241 235 226 217 199 206 206 214 214 243 256 280 284 289 294 276 271 268 265 262 265 267
304 303 301 296 288 280 273 267 257 242 236 239 245 244 247 245 239 206 196 227 233 230 232 226 209 193 198 212 218 233 247 260 272 286 290 290 281 276 272 259 271 270 275
302 301 298 291 284 275 263 254 239 223 212 208 218 229 235 226 210 187 192 208 223 203 190 191 191 194 201 212 232 245 245 254 267 282 287 280 274 269 266 271 274 269 271
303 301 290 276 270 248 217 163 164 176 160 156 154 141 136 147 162 178 184 186 177 171 177 184 188 197 211 224 234 243 252 263 272 280 273 271 271 266 264 263 258 269 275
290 285 272 251 215 178 162 143 125 126 129 131 129 126 128 127 138 152 171 174 172 177 191 194 198 211 224 236 247 257 261 269 273 272 268 267 266 258 256 262 269 273 273
273 267 245 191 159 146 144 144 138 135 129 117 122 122 121 133 145 151 165 168 175 186 204 210 219 230 240 249 258 264 268 268 266 264 263 262 262 261 263 266 266 268 274
245 228 201 191 151 141 135 134 129 134 135 127 113 114 118 125 131 148 160 163 180 204 221 230 242 249 254 258 263 263 264 263 262 262 264 266 266 264 264 265 269 271 273
217 207 181 167 140 142 145 136 145 146 141 142 139 128 130 145 153 156 156 175 197 218 233 243 252 267 273 271 268 266 267 267 267 267 269 268 267 266 268 269 268 269 272
199 193 173 165 159 148 149 152 151 148 156 147 127 114 118 132 144 150 159 185 209 223 237 249 265 276 279 278 276 275 274 275 275 274 272 272 272 271 270 269 270 271 272
185 175 174 170 159 157 168 181 174 166 168 158 142 130 125 124 118 123 136 173 215 231 247 262 270 275 279 280 281 280 279 278 276 273 273 272 271 273 273 272 271 270 268
170 164 163 171 178 191 192 185 178 177 174 163 143 124 121 120 72 335 307 292 287 286 287 286 286 286 285 284 283 282 281 279 276 275 273 271 272 273 273 272 270 268 266
173 176 174 179 183 183 186 183 176 168 161 152 150 335 324 325 322 316 310 309 304 303 300 296 293 291 290 289 288 284 281 278 277 276 276 274 272 270 269 267 266 264 264
178 177 174 173 172 171 172 167 161 160 153 302 304 310 312 313 310 308 306 303 301 298 295 295 294 291 290 288 285 282 280 278 276 276 274 272 270 267 265 264 263 264 264
171 164 159 160 163 165 168 167 174 249 279 290 298 299 302 303 303 303 302 299 297 295 293 292 291 290 289 287 284 282 280 279 278 275 271 269 268 267 268 267 266 265 266
149 156 164 164 170 176 208 257 279 288 296 301 303 304 304 304 301 298 297 296 295 293 292 293 293 292 291 290 288 285 282 279 277 275 273 272 271 270 270 269 266 266 266
Wind_Speed_850mb
11 19 28 34 39 43 49 53 57 61 64 68 66 66 70 73 82 88 100 101 93 101 103 95 94 87 88 96 93 85 82 68 71 61 58 55 43 42 45 42 42 41 33
20 33 38 43 45 48 51 51 54 58 62 63 64 62 65 70 77 79 89 94 94 106 97 92 94 95 93 94 94 87 82 68 71 59 60 54 46 41 40 42 40 39 37
44 45 41 48 52 56 58 61 61 61 65 68 66 64 63 65 70 70 76 91 87 93 91 103 93 98 100 96 93 86 69 70 66 58 54 50 42 43 46 42 42 35 41
56 56 58 56 61 61 62 63 67 69 71 69 66 65 62 63 66 69 70 82 84 94 92 90 97 98 95 92 85 74 69 67 62 54 45 39 42 42 42 45 37 43 39
55 62 64 60 63 68 69 67 70 72 75 72 65 64 64 66 66 70 69 77 76 81 89 90 89 85 82 74 74 74 61 60 64 51 42 38 38 45 46 34 43 38 42
66 67 65 64 62 67 73 75 76 76 72 69 66 64 65 68 64 68 69 77 76 79 81 78 81 81 71 67 66 47 53 67 53 43 40 35 38 34 37 43 45 41 46
69 65 62 62 63 61 61 64 66 66 64 64 60 59 61 64 62 63 70 74 74 75 77 77 76 72 64 65 53 57 57 49 37 29 28 27 38 46 39 45 46 50 53
59 61 57 56 56 57 59 58 58 59 60 59 57 55 56 54 57 60 65 70 70 69 70 71 67 64 58 59 65 66 63 44 28 22 33 37 45 41 53 51 54 55 52
45 50 53 56 58 58 59 54 52 53 54 54 54 53 52 50 56 56 63 63 62 60 61 59 53 51 50 58 73 72 59 39 35 33 32 41 46 51 49 44 51 49 49
47 44 45 49 51 50 47 48 48 47 44 46 49 45 49 50 54 53 55 55 54 56 53 48 44 45 56 69 76 65 55 34 31 32 24 36 39 39 40 45 45 48 43
48 48 47 45 45 43 40 40 41 42 41 39 38 38 42 45 45 44 43 42 45 47 48 52 52 52 64 67 64 54 43 35 28 23 31 39 41 41 45 48 49 44 41
47 46 44 42 40 39 37 32 30 30 27 28 28 32 33 33 33 30 29 27 25 32 42 50 54 58 63 63 55 36 32 42 39 42 42 46 42 40 38 38 35 35 36
48 43 41 40 36 31 30 25 22 22 19 20 24 24 24 22 19 19 31 30 18 22 31 40 51 57 61 57 42 51 49 36 37 46 51 50 42 39 36 33 37 36 38
44 39 35 31 29 24 20 15 13 13 15 15 15 14 13 13 14 21 32 26 14 14 21 34 43 49 50 56 57 53 41 48 53 58 56 47 44 41 38 39 40 42 47
38 31 26 21 16 12 9 7 8 13 15 14 16 17 13 11 14 22 29 27 18 19 28 38 43 44 48 53 55 52 47 52 51 52 48 43 42 41 43 44 45 49 49
26 23 21 14 12 12 13 19 20 15 18 25 27 25 25 25 24 27 30 28 21 24 30 35 37 38 40 40 43 47 47 45 45 45 40 37 37 42 45 49 51 49 48
23 22 17 14 18 19 20 23 25 21 20 19 23 25 24 23 24 25 25 27 21 21 25 26 27 28 31 35 39 41 41 38 37 38 41 43 43 45 49 49 47 48 49
18 17 14 14 19 21 18 18 18 18 18 19 19 21 21 20 21 23 25 25 28 29 26 23 24 26 28 31 34 36 36 35 36 38 40 38 38 40 42 44 45 46 45
18 16 16 18 20 20 18 18 16 14 14 13 12 12 14 12 12 14 17 15 19 18 18 20 24 29 27 24 23 24 26 28 30 33 35 36 37 40 43 43 44 44 43
19 15 17 16 18 18 15 13 12 12 13 13 14 18 19 16 14 14 14 15 17 17 17 15 15 17 19 20 22 25 28 30 32 35 37 38 40 42 42 41 41 41 40
23 21 17 17 16 14 11 11 12 16 15 13 11 11 9 8 8 7 7 6 8 9 11 14 16 19 22 25 27 30 32 33 34 35 37 38 39 39 39 41 41 40 39
26 25 22 17 14 13 14 15 13 12 10 7 5 4 4 2 1 2 4 6 10 13 15 18 21 25 28 30 32 33 35 35 37 37 37 37 38 41 43 42 40 38 38
21 21 19 17 17 18 17 17 14 12 9 5 2 1 4 7 9 12 14 16 19 22 25 27 29 31 33 34 36 38 38 39 39 40 40 40 40 41 41 40 38 38 38
19 19 19 19 19 18 17 14 10 6 2 2 6 9 11 14 17 19 23 26 29 32 34 36 37 38 39 40 41 42 42 42 41 40 40 40 39 39 40 39 36 36 37
18 18 18 18 17 15 11 8 4 3 6 9 12 15 18 21 25 29 32 34 36 37 38 38 38 39 40 39 39 39 40 41 40 39 39 39 38 38 39 38 37 37 38
14 14 14 12 10 7 4 4 7 11 14 18 22 25 29 31 34 36 37 38 39 40 40 40 39 39 38 38 38 38 38 38 38 39 41 41 40 39 40 39 38 40 41
Wind_Direction_850mb
300 296 282 273 264 262 262 262 264 267 268 269 269 266 261 256 245 248 248 246 249 251 249 253 247 251 249 250 243 238 232 238 242 230 227 217 212 214 218 225 231 242 247
317 323 301 289 278 271 270 271 266 266 270 269 270 267 261 255 248 250 247 248 250 252 248 248 253 252 246 245 243 241 234 229 236 238 220 206 213 215 221 226 234 240 253
305 304 294 283 279 275 275 275 271 267 267 267 268 267 263 255 248 247 248 248 248 255 250 261 252 248 244 242 240 237 224 220 229 231 214 209 213 216 217 226 236 243 253
290 293 294 284 273 275 277 274 272 269 268 266 268 270 264 256 250 247 250 249 249 251 255 254 249 249 246 243 239 226 215 214 223 211 210 214 217 217 222 231 239 249 256
287 291 289 285 278 278 275 275 277 272 269 268 267 265 262 255 250 249 251 251 252 255 256 250 250 251 246 246 234 213 216 211 206 207 216 212 215 221 231 249 248 253 264
288 285 285 284 281 276 275 276 274 273 270 267 268 266 261 255 252 249 251 256 255 255 254 250 253 249 246 237 227 215 217 206 207 218 216 219 230 237 245 244 253 262 277
289 290 288 285 282 281 279 275 273 273 272 270 269 265 262 256 252 251 254 254 256 256 253 252 248 245 238 223 197 203 199 204 214 216 219 245 249 255 241 243 250 259 268
287 287 286 283 279 278 277 277 277 274 272 272 271 268 264 255 250 250 255 258 255 255 254 251 247 245 227 204 192 194 205 209 205 250 263 273 269 244 246 253 262 268 274
294 292 290 284 281 280 277 272 267 268 271 272 272 269 264 256 253 252 257 258 254 252 250 248 240 230 210 194 199 202 210 216 243 251 273 277 271 266 271 267 266 269 276
302 297 292 291 288 282 277 272 266 260 258 259 263 264 259 255 254 255 259 256 250 247 243 236 221 217 201 203 204 214 214 225 249 266 283 287 280 277 271 265 267 269 276
305 305 302 296 289 281 274 269 266 261 258 256 259 258 255 254 254 260 259 256 249 245 238 222 219 200 204 209 212 214 222 238 255 284 301 296 275 266 260 262 260 263 272
303 305 303 297 288 283 276 268 263 260 257 257 252 251 252 253 252 254 242 246 246 241 235 226 217 199 206 206 214 214 243 256 280 284 289 294 276 271 268 265 262 265 267
304 303 301 296 288 280 273 267 257 242 236 239 245 244 247 245 239 206 196 227 233 230 232 226 209 193 198 212 218 233 247 260 272 286 290 290 281 276 272 259 271 270 275
302 301 298 291 284 275 263 254 239 223 212 208 218 229 235 226 210 187 192 208 223 203 190 191 191 194 201 212 232 245 245 254 267 282 287 280 274 269 266 271 274 269 271
303 301 290 276 270 248 217 163 164 176 160 156 154 141 136 147 162 178 184 186 177 171 177 184 188 197 211 224 234 243 252 263 272 280 273 271 271 266 264 263 258 269 275
290 285 272 251 215 178 162 143 125 126 129 131 129 126 128 127 138 152 171 174 172 177 191 194 198 211 224 236 247 257 261 269 273 272 268 267 266 258 256 262 269 273 273
273 267 245 191 159 146 144 144 138 135 129 117 122 122 121 133 145 151 165 168 175 186 204 210 219 230 240 249 258 264 268 268 266 264 263 262 262 261 263 266 266 268 274
245 228 201 191 151 141 135 134 129 134 135 127 113 114 118 125 131 148 160 163 180 204 221 230 242 249 254 258 263 263 264 263 262 262 264 266 266 264 264 265 269 271 273
217 207 181 167 140 142 145 136 145 146 141 142 139 128 130 145 153 156 156 175 197 218 233 243 252 267 273 271 268 266 267 267 267 267 269 268 267 266 268 269 268 269 272
199 193 173 165 159 148 149 152 151 148 156 147 127 114 118 132 144 150 159 185 209 223 237 249 265 276 279 278 276 275 274 275 275 274 272 272 272 271 270 269 270 271 272
185 175 174 170 159 157 168 181 174 166 168 158 142 130 125 124 118 123 136 173 215 231 247 262 270 275 279 280 281 280 279 278 276 273 273 272 271 273 273 272 271 270 268
170 164 163 171 178 191 192 185 178 177 174 163 143 124 121 120 72 335 307 292 287 286 287 286 286 286 285 284 283 282 281 279 276 275 273 271 272 273 273 272 270 268 266
173 176 174 179 183 183 186 183 176 168 161 152 150 335 324 325 322 316 310 309 304 303 300 296 293 291 290 289 288 284 281 278 277 276 276 274 272 270 269 267 266 264 264
178 177 174 173 172 171 172 167 161 160 153 302 304 310 312 313 310 308 306 303 301 298 295 295 294 291 290 288 285 282 280 278 276 276 274 272 270 267 265 264 263 264 264
171 164 159 160 163 165 168 167 174 249 279 290 298 299 302 303 303 303 302 299 297 295 293 292 291 290 289 287 284 282 280 279 278 275 271 269 268 267 268 267 266 265 266
149 156 164 164 170 176 208 257 279 288 296 301 303 304 304 304 301 298 297 296 295 293 292 293 293 292 291 290 288 285 282 279 277 275 273 272 271 270 270 269 266 266 266